When you browse on this site, cookies collect data to enhance your experience and personalize the content and advertising you see.
Visit our Privacy Policy to learn more. By continuing to use the site, you agree to this use of cookies and data.
  • In Spain
  • List of Countries
  • For 7 days
  • Water Temperature
  • Satellite Maps
  • Weather Map
  • Weather Widgets
  • user-avatar
    Login

    Hourly Weather La Massana

    Today, 23 July, Tuesday

    Time Temperature Precipitation Wind Pressure Humidity
    00:00 +16°C° 0 mm 1 mps 616 mmHg 52%
    01:00 +16°C° 0 mm 1 mps 615 mmHg 51%
    02:00 +16°C° 0 mm 2 mps 615 mmHg 51%
    03:00 +16°C° 0 mm 2 mps 615 mmHg 50%
    04:00 +16°C° 0 mm 2 mps 615 mmHg 51%
    05:00 +17°C° 0 mm 2 mps 615 mmHg 51%
    06:00 +17°C° 0 mm 2 mps 616 mmHg 52%
    07:00 +20°C° 0 mm 2 mps 617 mmHg 44%
    08:00 +24°C° 0 mm 2 mps 618 mmHg 36%
    09:00 +27°C° 0 mm 2 mps 619 mmHg 29%
    10:00 +27°C° 0 mm 2 mps 619 mmHg 27%
    11:00 +28°C° 0 mm 2 mps 619 mmHg 25%
    12:00 +29°C° 0 mm 2 mps 619 mmHg 24%
    13:00 +29°C° 0 mm 2 mps 619 mmHg 25%
    14:00 +28°C° 0 mm 2 mps 619 mmHg 27%
    15:00 +28°C° 0 mm 2 mps 618 mmHg 29%
    16:00 +27°C° 0 mm 1 mps 617 mmHg 36%
    17:00 +25°C° 0 mm 1 mps 617 mmHg 42%
    18:00 +24°C° 0 mm 1 mps 616 mmHg 49%
    19:00 +22°C° 0 mm 1 mps 616 mmHg 51%
    20:00 +20°C° 0 mm 1 mps 615 mmHg 54%
    21:00 +18°C° 0 mm 1 mps 615 mmHg 56%
    22:00 +18°C° 0 mm 1 mps 614 mmHg 55%
    23:00 +16°C° 0 mm 1 mps 614 mmHg 53%

    Tomorrow, 24 July, Wednesday

    Time Temperature Precipitation Wind Pressure Humidity
    00:00 +16°C° 0 mm 1 mps 614 mmHg 52%
    01:00 +16°C° 0 mm 1 mps 614 mmHg 50%
    02:00 +16°C° 0 mm 1 mps 614 mmHg 49%
    03:00 +16°C° 0 mm 1 mps 614 mmHg 47%
    04:00 +16°C° 0 mm 1 mps 614 mmHg 48%
    05:00 +18°C° 0 mm 1 mps 614 mmHg 48%
    06:00 +18°C° 0 mm 1 mps 615 mmHg 48%
    07:00 +21°C° 0 mm 1 mps 616 mmHg 42%
    08:00 +24°C° 0 mm 1 mps 617 mmHg 35%
    09:00 +27°C° 0 mm 1 mps 618 mmHg 28%
    10:00 +27°C° 0 mm 1 mps 618 mmHg 27%
    11:00 +28°C° 0 mm 2 mps 618 mmHg 26%
    12:00 +28°C° 0 mm 2 mps 618 mmHg 25%
    13:00 +28°C° 0 mm 2 mps 618 mmHg 26%
    14:00 +28°C° 0 mm 2 mps 617 mmHg 28%
    15:00 +28°C° 0 mm 2 mps 617 mmHg 30%
    16:00 +26°C° 0 mm 2 mps 616 mmHg 37%
    17:00 +25°C° 0 mm 1 mps 616 mmHg 44%
    18:00 +24°C° 0 mm 1 mps 615 mmHg 51%
    19:00 +22°C° 0 mm 1 mps 615 mmHg 56%
    20:00 +20°C° 0 mm 1 mps 614 mmHg 60%
    21:00 +18°C° 0 mm 1 mps 614 mmHg 64%
    22:00 +16°C° 0 mm 1 mps 613 mmHg 62%
    23:00 +16°C° 0 mm 1 mps 613 mmHg 60%

    Day after tomorrow, 25 July, Thursday

    Time Temperature Precipitation Wind Pressure Humidity
    00:00 +16°C° 0 mm 1 mps 613 mmHg 58%
    01:00 +16°C° 0 mm 2 mps 612 mmHg 57%
    02:00 +16°C° 0 mm 2 mps 612 mmHg 56%
    03:00 +16°C° 0 mm 2 mps 612 mmHg 55%
    04:00 +16°C° 0 mm 1 mps 612 mmHg 53%
    05:00 +18°C° 0 mm 1 mps 613 mmHg 52%
    06:00 +18°C° 0 mm 1 mps 613 mmHg 50%
    07:00 +21°C° 0 mm 1 mps 614 mmHg 43%
    08:00 +23°C° 0 mm 2 mps 615 mmHg 36%
    09:00 +26°C° 0 mm 2 mps 616 mmHg 28%
    10:00 +27°C° 0 mm 2 mps 617 mmHg 27%
    11:00 +28°C° 0 mm 2 mps 617 mmHg 26%
    12:00 +29°C° 0 mm 2 mps 617 mmHg 25%
    13:00 +28°C° 0 mm 2 mps 616 mmHg 27%
    14:00 +28°C° 0 mm 2 mps 616 mmHg 29%
    15:00 +27°C° 0 mm 2 mps 615 mmHg 30%
    16:00 +26°C° 0 mm 2 mps 615 mmHg 37%
    17:00 +25°C° 0 mm 2 mps 614 mmHg 43%
    18:00 +23°C° 0 mm 2 mps 614 mmHg 50%
    19:00 +20°C° 0 mm 2 mps 613 mmHg 54%
    20:00 +19°C° 0 mm 1 mps 612 mmHg 59%
    21:00 +16°C° 0 mm 1 mps 612 mmHg 63%
    22:00 +16°C° 0 mm 1 mps 612 mmHg 63%
    23:00 +16°C° 0 mm 1 mps 612 mmHg 62%

    26 July, Friday

    Time Temperature Precipitation Wind Pressure Humidity
    00:00 +15°C° 0 mm 1 mps 611 mmHg 62%
    01:00 +15°C° 0 mm 1 mps 611 mmHg 63%
    02:00 +15°C° 0 mm 1 mps 611 mmHg 63%
    03:00 +14°C° 0 mm 1 mps 611 mmHg 64%
    04:00 +15°C° 0 mm 1 mps 611 mmHg 63%
    05:00 +16°C° 0 mm 1 mps 611 mmHg 61%
    06:00 +16°C° 0 mm 1 mps 611 mmHg 59%
    07:00 +19°C° 0 mm 1 mps 612 mmHg 53%
    08:00 +21°C° 0 mm 1 mps 613 mmHg 46%
    09:00 +24°C° 0 mm 2 mps 614 mmHg 39%
    10:00 +24°C° 0 mm 2 mps 614 mmHg 38%
    11:00 +24°C° 0 mm 2 mps 614 mmHg 38%
    12:00 +25°C° 0 mm 3 mps 614 mmHg 37%
    13:00 +24°C° 0.2 mm 3 mps 613 mmHg 43%
    14:00 +22°C° 0.2 mm 3 mps 612 mmHg 48%
    15:00 +20°C° 0.2 mm 3 mps 611 mmHg 54%
    16:00 +19°C° 0.7 mm 3 mps 611 mmHg 60%
    17:00 +18°C° 0.7 mm 2 mps 610 mmHg 67%
    18:00 +17°C° 0.7 mm 2 mps 610 mmHg 73%
    19:00 +16°C° 1.8 mm 1 mps 610 mmHg 78%
    20:00 +15°C° 1.8 mm 1 mps 609 mmHg 83%
    21:00 +13°C° 1.8 mm 1 mps 609 mmHg 88%
    22:00 +13°C° 0.2 mm 1 mps 609 mmHg 89%
    23:00 +12°C° 0.2 mm 1 mps 608 mmHg 91%

    27 July, Saturday

    Time Temperature Precipitation Wind Pressure Humidity
    00:00 +11°C° 0.2 mm 1 mps 608 mmHg 92%
    01:00 +10°C° 0.2 mm 2 mps 608 mmHg 93%
    02:00 +10°C° 0.2 mm 2 mps 607 mmHg 94%
    03:00 +10°C° 0.2 mm 2 mps 607 mmHg 95%
    04:00 +10°C° 0.5 mm 2 mps 607 mmHg 95%
    05:00 +10°C° 0.5 mm 2 mps 607 mmHg 94%
    06:00 +10°C° 0.5 mm 2 mps 607 mmHg 94%
    07:00 +12°C° 0.6 mm 2 mps 608 mmHg 91%
    08:00 +12°C° 0.6 mm 2 mps 608 mmHg 88%
    09:00 +13°C° 0.6 mm 2 mps 608 mmHg 85%
    10:00 +13°C° 0.7 mm 2 mps 608 mmHg 84%
    11:00 +13°C° 0.7 mm 2 mps 608 mmHg 83%
    12:00 +13°C° 0.7 mm 2 mps 608 mmHg 81%
    13:00 +13°C° 0.8 mm 2 mps 608 mmHg 81%
    14:00 +14°C° 0.8 mm 2 mps 608 mmHg 80%
    15:00 +14°C° 0.8 mm 2 mps 608 mmHg 80%
    16:00 +12°C° 0.3 mm 2 mps 607 mmHg 82%
    17:00 +10°C° 0.3 mm 2 mps 607 mmHg 84%
    18:00 +9°C° 0.3 mm 2 mps 606 mmHg 86%
    19:00 +9°C° 0 mm 2 mps 607 mmHg 87%
    20:00 +8°C° 0 mm 2 mps 607 mmHg 88%
    21:00 +7°C° 0 mm 2 mps 607 mmHg 90%
    22:00 +6°C° 0 mm 2 mps 607 mmHg 90%
    23:00 +6°C° 0 mm 2 mps 606 mmHg 91%

    28 July, Sunday

    Time Temperature Precipitation Wind Pressure Humidity
    00:00 +5°C° 0 mm 2 mps 606 mmHg 91%
    01:00 +5°C° 0 mm 2 mps 606 mmHg 92%
    02:00 +5°C° 0 mm 2 mps 606 mmHg 92%
    03:00 +4°C° 0 mm 2 mps 606 mmHg 92%
    04:00 +5°C° 0 mm 2 mps 606 mmHg 90%
    05:00 +5°C° 0 mm 2 mps 607 mmHg 88%
    06:00 +6°C° 0 mm 2 mps 607 mmHg 86%
    07:00 +8°C° 0 mm 2 mps 608 mmHg 76%
    08:00 +9°C° 0 mm 2 mps 609 mmHg 67%
    09:00 +12°C° 0 mm 2 mps 610 mmHg 57%
    10:00 +14°C° 0 mm 2 mps 610 mmHg 50%
    11:00 +15°C° 0 mm 2 mps 611 mmHg 43%
    12:00 +16°C° 0 mm 2 mps 611 mmHg 36%
    13:00 +17°C° 0 mm 2 mps 611 mmHg 38%
    14:00 +17°C° 0 mm 2 mps 611 mmHg 39%
    15:00 +17°C° 0 mm 2 mps 611 mmHg 41%
    16:00 +16°C° 0 mm 2 mps 611 mmHg 50%
    17:00 +14°C° 0 mm 2 mps 610 mmHg 59%
    18:00 +12°C° 0 mm 3 mps 610 mmHg 68%
    19:00 +10°C° 0 mm 2 mps 609 mmHg 76%
    20:00 +9°C° 0 mm 2 mps 609 mmHg 84%
    21:00 +7°C° 0 mm 2 mps 609 mmHg 92%
    22:00 +8°C° 0 mm 1 mps 609 mmHg 91%
    23:00 +7°C° 0 mm 1 mps 609 mmHg 91%
    Show more